Terminal Aerodrome Forecast
Issued by NWS

Current Version | Previous Version | Graphics & Text | Print | Product List | Glossary On
Versions: 1 2 3 4 5 6 7 8 9 10 11 12 13 14 15 16 17 18 19 20 21 22 23
000
FTUS41 KRLX 231700
TAFCKB
TAF
KCKB 231729Z 2318/2418 00000KT P6SM BKN040
     FM232300 00000KT 3SM -RA BR OVC025
     FM240200 00000KT 3SM -RAPL BR OVC010
     FM240400 VRB03KT 2SM -SNPL BR OVC008
     FM240800 VRB03KT 1SM -SN BR OVC003
     FM241200 VRB03KT 4SM -SN BR OVC008
     FM241400 29005KT 6SM BR BKN015=

USA.gov is the U.S. government's official web portal to all federal, state and local government web resources and services.